Regional Weather Roundup
Issued by NWS Wakefield, VA

Home | Current Version | Previous Version | Graphics & Text | Print | Product List | Glossary On
Versions: 1 2 3 4 5 6 7 8 9 10 11 12 13 14 15 16 17 18 19 20 21 22 23 24 25 26 27 28 29 30 31 32 33 34 35 36 37 38 39 40 41 42 43 44 45 46 47 48 49 50
000
ASUS41 KAKQ 271210
RWRAKQ

REGIONAL WEATHER ROUNDUP
NATIONAL WEATHER SERVICE WAKEFIELD VA
700 AM EST FRI FEB 27 2015

Note: "fair" indicates few or no clouds below 12,000 feet with no
significant weather and/or obstructions to visibility. * = Denotes
station may not report precipitation (e.g., rain,snow,etc.),
thunder or fog.

VAZ042-051-052>054-056-271300-
NORTHERN VIRGINIA

CITY           SKY/WX    TMP DP  RH WIND       PRES   REMARKS
WASH NATIONAL  CLOUDY    33  22  63 N13       30.31R WCI  24
DULLES         CLOUDY    27  17  66 N9        30.31R
FORT BELVOIR   CLOUDY    32  22  67 NW6       30.32R
QUANTICO       CLOUDY    32  23  69 NE12      30.33R WCI  23
FREDERICKSBRG* CLOUDY    32  29  90 CALM      30.30R
STAFFORD*      CLOUDY    31  22  70 N9        30.34R
WARRENTON      CLOUDY    31  25  78 N12       30.30R WCI  22
CULPEPER*      CLOUDY    30  19  64 N8        30.31R
MANASSAS*      CLOUDY    30  25  80 N12G17    30.32R WCI  21
LEESBURG*      CLOUDY    28  19  69 NW13      30.33R WCI  18
WINCHESTER     MOCLDY    23   7  50 NW3       30.32R
FRONT ROYAL*   FAIR      23  12  63 N5        30.30R
LURAY*         CLOUDY    28  21  74 NE6       30.28R
$$

VAZ048-049-060>072-079>083-271300-
CENTRAL AND SOUTH CENTRAL VIRGINIA

CITY           SKY/WX    TMP DP  RH WIND       PRES   REMARKS
RICHMOND       PTCLDY    30  26  85 S5        30.28R FOG
CHESTERFIELD*  CLOUDY    25  12  58 CALM      30.28R VSB<1/4
PETERSBURG*    CLEAR    N/A N/A N/A CALM      30.29R HAZE
HANOVER        CLOUDY    27  26  96 CALM      30.30R FOG
TAPPAHANNOCK*  CLOUDY    28  26  89 CALM      30.29R
QUINTON*       PTSUNNY   27  27  98 CALM      30.29R
CHARLOTTSVILLE CLOUDY    27  21  78 N3        30.28R
GORDONSVILLE*  PTSUNNY   27  20  74 N6        30.29R
ORANGE*        CLOUDY    30  23  74 N6        30.31R
LOUISA*        CLOUDY    28  27  93 N5        30.27R FOG
BUMPASS*       PTSUNNY   25  24  96 CALM      30.27R
FARMVILLE*     CLEAR     27  27 100 W6        30.26R
CREWE*         FAIR      28  27  95 CALM      30.26R
FORT PICKETT*  CLOUDY    22  22  97 S6        30.27R VSB<1/4
CHASE CITY*    PTSUNNY   26  26 100 CALM      30.28R VSB 1/2
CLARKSVILLE*   FAIR      25  25 100 CALM      30.28R
SOUTH HILL*      N/A     23  22  98 CALM      30.34R VSB 1/4
LAWRENCEVILLE* FAIR      26  25  99 CALM      30.28R
EMPORIA*       FOG       19  19 100 CALM      30.32R VSB 1/2
$$

VAZ088>098-271300-
SOUTHEAST VIRGINIA

CITY           SKY/WX    TMP DP  RH WIND       PRES   REMARKS
NORFOLK        CLEAR     23  21  92 CALM      30.28R FOG
VIRGINIA BEACH PTCLDY    24  21  88 W3        30.28R FOG
NORFOLK NAVAL  PTCLDY    27  23  85 CALM      30.30R FOG
WEST POINT*    CLOUDY    28  26  91 CALM      30.31R
SALUDA*        CLOUDY    26  25  96 CALM      30.28R
NEWPORT NEWS   CLOUDY    25  21  85 CALM      30.29R FOG
LANGLEY AFB    CLOUDY    24  22  93 CALM      30.29R FOG
FORT EUSTIS    CLEAR     23  23 100 CALM      30.28R FOG
WILLIAMSBURG*  CLEAR     27  25  93 CALM      30.30R
HR EXEC AP*    PTSUNNY   18  16  93 CALM      30.31R
FRANKLIN*      CLEAR     20  19  95 CALM      30.31R FOG
WAKEFIELD      PTCLDY    22  17  81 CALM      30.30R HAZE
$$

VAZ020-022-025-037-045-271300-
WEST CENTRAL AND SOUTHWEST VIRGINIA

CITY           SKY/WX    TMP DP  RH WIND       PRES   REMARKS
STAUNTON*      MOCLDY    23  17  78 NW5       30.28R
WAYNESBORO*    FAIR      23  16  72 CALM      30.24R
HOT SPRINGS VA CLOUDY    13  10  87 W12       30.07R WCI   0
LYNCHBURG      CLEAR     26  18  71 W6        30.28R
DANVILLE       CLEAR     27  24  89 NW7       30.30R FOG
SOUTH BOSTON*  FAIR      21  19  92 CALM      30.29R
MARTINSVILLE   PTCLDY    21  21 100 CALM      30.31R
ROANOKE        PTCLDY    25  14  63 NW8       30.30R
BLACKSBURG     CLOUDY    23  14  69 NW8       30.25R
DUBLIN*        CLOUDY    26  18  73 NW3       30.24R
MARION*        FLURRIES  25  17  72 W7        30.22R
HILLSVILLE*    FLURRIES  22  17  81 N7        30.19R
RICHLANDS*     LGT SNOW  19  15  84 N7        30.22R
WISE*          FLURRIES  19  14  79 NW8       30.25R
ABINGDON*      FLURRIES  25  19  77 N5        30.25R
$$

MDZ021>025-VAZ099-100-271300-
SOUTHERN MARYLAND AND THE DELMARVA PENINSULA

CITY           SKY/WX    TMP DP  RH WIND       PRES   REMARKS
PATUXENT RIVER CLOUDY    28  24  85 CALM      30.29R
BAY BRIDGE APT   N/A     30  25  80 CALM      30.30R
LEONARDTOWN    CLOUDY    28  25  86 CALM      30.29S
DOVER          MOCLDY    25  22  91 N9        30.30R
GEORGETOWN     PTCLDY    20  14  77 CALM      30.29R HAZE
EASTON         CLOUDY    28  27  93 CALM      30.33R
CAMBRIDGE      MOCLDY    28  25  86 CALM      30.28R
SALISBURY      CLOUDY    24  19  81 N3        30.28R HAZE
OCEAN CITY     MOCLDY    17  15  92 NW5       30.28R FOG
WALLOPS ISLAND CLOUDY    21  19  92 NE3       30.28R
ACCOMACK*      FOG      N/A N/A N/A NE3       30.28R VSB 1/2
$$

NCZ012>017-030>032-271300-
NORTH CENTRAL AND EASTERN NORTH CAROLINA

CITY           SKY/WX    TMP DP  RH WIND       PRES   REMARKS
ROANOKE RAPIDS PTSUNNY   27  25  93 CALM      30.30R FOG
RALEIGH        PTCLDY    23  19  85 CALM      30.29R FOG
ELIZABETH CITY CLEAR     28  25  88 NW5       30.28R
AHOSKIE*       FOG       23  22  96 CALM      30.31R VSB 1/4
EDENTON*       FOG       26  25  96 N3        30.28R VSB 1/2
CURRITUCK*     CLEAR     28  25  89 CALM      30.28R
KILL DEVIL HLS CLEAR     33  30  90 N3        30.25R
MANTEO         CLEAR     32  28  86 N8        30.27R
CAPE HATTERAS  CLOUDY    34  30  85 N8        30.25R
TARBORO*       FAIR      23  22  96 CALM      30.32R FOG
GOLDSBORO      MOCLDY    30  30  99 CALM      30.28R FOG
WASHINGTON     PTCLDY    29  28  96 CALM      30.29R FOG
GREENVILLE       N/A     28  28 100 CALM      30.31R FOG
NEW BERN       CLOUDY    32  28  85 N5        30.29R
WILMINGTON     MOCLDY    32  30  92 N3        30.29R FOG
$$

VAZ048-271300-
ELSEWHERE

CITY           SKY/WX    TMP DP  RH WIND       PRES   REMARKS
HARRISBURG PA  PTCLDY    18   8  65 NW6       30.34R
BALTIMORE      MOCLDY    27  22  81 NW6       30.29R HAZE
ANNAPOLIS      CLOUDY    29  23  78 NW3       30.30R
ANDREWS AFB    CLOUDY    29  24  81 N6        30.29R
PHILADELPHIA   LGT SNOW  23  16  74 N10       30.34R WCI  12
HENDERSON NC   CLEAR     27  26  96 CALM      30.28R FOG
GREENSBORO     FOG       25  24  96 CALM      30.26R VSB 1/2
ROCKY MOUNT    FOG       25  23  92 CALM      30.30R VSB 1/4
$$

VAZ100-271300-
MARINE

STATION/POSITION TIME  TEMP    WIND        PRES    WAVE   SWELL
                       AIR SEA DIR/SP/G            HT/PER HT/PER
                 (UTC) (F)     (DEG/KT/KT) (MB)    (FT/S) (FT/S)
BRANDYWINE LGT   1200   26 29   40/ 10/ 11 1025.8R
CAPE MAY NJ      1200   23 32   30/  3/  5 1025.3R
LEWES DE         1200   28 30   30/  8/  9 1025.7R
15NM E FENWICK I 1200   31 36              1024.8R   5/ 9
OCEAN-CITY-INLET 1200   25 31  360/  2/  2 1024.6F
WACHAPREAGUE VA  1200   23 32  350/  2/  3 1025.4R
THOMAS POINT MD  1200   30 31  350/  3/  4 1027.3R
COVE POINT MD    1200   29        CALM     1025.3R
SOLOMONS ISLAND  1200      32                N/A
BISHOPS HEAD MD  1200   28 31   10/  2/  3 1025.0R
CAMBRIDGE MD     1200   26 32     CALM     1025.5R
LEWISETTA VA     1200   27 32              1025.2R
RAPPAHANNOCK LGT 1200           30/  3/  4 1025.9R
STINGRAY PT      1200   30      60/  4/  4   N/A
YORK RVR RNG VA  1200   29     360/  3/  3 1024.7R
YORKTOWN VA      1200   27 32  250/  2/  2 1025.2R
DOMINION TERM VA 1200   29      10/  2/  2 1025.5R
KIPTOPEKE VA     1200      36   50/  5/  7   N/A
CHES BAY BRIDGE  1200   30 33   30/  5/  5 1024.9R
CAPE HENRY VA    1200   29      10/  4/  5 1023.9R
CHESAPEAKE LGHT  1100   32      20/ 10/ 11 1025.0R
WILLOUBY STN VA  1200   29     350/  3/  4 1025.8R
S CRANEY ISL VA  1200          320/  2/  2 1025.4R
CAPE HENRY BUOY  1200      35                N/A     5/ 9   2/11
1ST LANDING BUOY 1200   31      30/  6/  8 1024.7R
OFFSHORE WE BUOY 1200      38                N/A     6/11   7/11
64NM E OF VA BCH 1200   42 59   10/ 17/ 21 1023.3R   9/12   8/12
DUCK PIER NC     1200   33 34   10/ 10/ 12 1023.7R
44100 DUCK FRF   1200      36                N/A     8/10   5/12
44056 DUCK FRF   1200      35                N/A     6/13   3/13
OREGON INLET NC  1200   34 36  350/  8/ 11 1024.4R
HATTERAS NC      1200   34 40  360/ 15/ 17 1024.6R
CAPE LOOKOUT NC  1100   34     360/  9/ 12 1024.3R
$$


USA.gov is the U.S. government's official web portal to all federal, state and local government web resources and services.